Flag for Australia Weather past 2 weeks in Brisbane, Queensland, Australia

Now
82 °F

Partly sunny.


Feels Like: 88 °F
Forecast: 72 / 90 °F
Wind: 16 mph from Northeast

Location: Brisbane Airport M. O

Current Time: Dec 29, 2014 at 2:48:01 PM

Latest Report: Dec 29, 2014 at 2:00 PM


Visibility: N/A

Pressure: 29.74 "Hg

Humidity: 74%

Dew point: 73 °F

Location of BrisbaneLocation

Historic Weather in Brisbane — Graph

°F

Brisbane temperature yesterday

Maximum temperature yesterday: 77 °F (at 4:00 PM)
Minimum temperature yesterday: 68 °F (at 12:00 AM)
Average temperature yesterday: 71 °F

Past Weeks' High & Low Weather Summary

 TemperatureHumidityPressure
High90 °F (Dec 17, 11:30 AM)100% (Dec 19, 3:00 AM)30.07 "Hg (Dec 19, 3:00 AM)
Low63 °F (Dec 15, 1:30 AM)46% (Dec 17, 12:00 PM)29.62 "Hg (Dec 17, 2:30 PM)
Average76 °F72%29.88 "Hg
* Reported Dec 14 1:00 PM — Dec 29 1:00 PM, Brisbane, Weather by CustomWeather, © 2014

Note: Actual official high and low records may vary slightly from our data, if they occured in-between our weather recording intervals... More about our weather records

Advertising

Brisbane weather history for previous 24 hours

 ConditionsComfort  
Time TempWeatherWind HumidityBarometerVisibility
1:00 PM
Dec 29
82 °FBroken clouds.15 mph74%29.77 "HgN/A
12:30 PM82 °FBroken clouds.14 mph74%29.77 "HgN/A
12:00 PM82 °FBroken clouds.10 mph74%29.77 "HgN/A
11:30 AM81 °FBroken clouds.10 mph79%29.80 "HgN/A
11:00 AM81 °FBroken clouds.9 mph74%29.80 "HgN/A
10:30 AM81 °FBroken clouds.8 mph74%29.80 "HgN/A
10:00 AM81 °FBroken clouds.7 mph74%29.83 "HgN/A
9:30 AM81 °FPartly sunny.7 mph74%29.83 "HgN/A
9:00 AM79 °FPartly sunny.6 mph79%29.83 "HgN/A
8:30 AM77 °FBroken clouds.2 mph83%29.83 "HgN/A
8:00 AM77 °FBroken clouds.No wind83%29.86 "HgN/A
7:30 AM75 °FBroken clouds.3 mph83%29.86 "HgN/A
7:00 AM75 °FBroken clouds.1 mph83%29.86 "HgN/A
6:00 AM73 °FScattered showers. Broken clouds.2 mph89%29.83 "HgN/A
5:00 AM72 °FDrizzle. Broken clouds.7 mph94%29.83 "HgN/A
4:30 AM73 °FSprinkles. Broken clouds.7 mph94%29.80 "Hg4 mi
4:00 AM73 °FSprinkles. Broken clouds.2 mph94%29.80 "Hg6 mi
3:30 AM73 °FRain showers. Partly cloudy.1 mph94%29.80 "Hg4 mi
3:00 AM73 °FSprinkles. Partly cloudy.5 mph94%29.80 "Hg4 mi
2:30 AM73 °FRain showers. Partly cloudy.5 mph94%29.80 "Hg2 mi
2:00 AM73 °FSprinkles. Partly cloudy.1 mph94%29.80 "HgN/A
1:30 AM73 °FScattered showers. Passing clouds.2 mph94%29.83 "HgN/A
1:00 AM73 °FPartly cloudy.No wind94%29.83 "HgN/A
12:00 AM73 °FSprinkles. Partly cloudy.3 mph89%29.83 "HgN/A
11:00 PM
Dec 28
73 °FPartly cloudy.No wind89%29.86 "HgN/A
10:30 PM73 °FScattered showers. Partly cloudy.2 mph89%29.86 "HgN/A
10:00 PM73 °FScattered showers. Partly cloudy.3 mph89%29.89 "HgN/A
9:30 PM73 °FScattered showers. Partly cloudy.6 mph89%29.89 "HgN/A
9:00 PM73 °FPartly cloudy.2 mph89%29.89 "HgN/A
8:30 PM75 °FPartly cloudy.No wind83%29.89 "HgN/A
8:00 PM75 °FPassing clouds.5 mph83%29.86 "HgN/A
7:30 PM75 °FPassing clouds.3 mph83%29.86 "HgN/A
7:00 PM75 °FPartly cloudy.5 mph83%29.86 "HgN/A
6:30 PM75 °FPartly cloudy.6 mph83%29.86 "HgN/A
6:00 PM75 °FPartly cloudy.6 mph83%29.86 "HgN/A
5:00 PM75 °FBroken clouds.6 mph83%29.83 "HgN/A
4:30 PM77 °FBroken clouds.6 mph83%29.83 "HgN/A
4:00 PM77 °FBroken clouds.5 mph83%29.83 "HgN/A
3:00 PM75 °FBroken clouds.6 mph89%29.86 "HgN/A
2:30 PM75 °FLight rain. Broken clouds.6 mph89%29.86 "HgN/A
2:00 PM73 °FLight rain. Broken clouds.1 mph89%29.86 "HgN/A
Weather by CustomWeather, © 2014

See weather overviewHow to use our weather pages